Погода в Кувакине

Россия / Республика Башкортостан     56°10′15″N   54°30′27″E
темп.,
°C
ветер,
м/с
пор.,
м/с
влажн.,
%
обл.,
%
осадки,
мм/ч
давл.,
гПа
погр.,
м
14 мая, пт
пт1423:00+18ююв11540 0.0 102511
02:00+17ююв11545 0.0 102511
05:00+16ююв22615 0.0 102511
08:00+20ю24543 0.0 1025178
11:00+25ю45385 0.0 1025720
14:00+27ююз463119 0.0 10241765
17:00+28ююз56315 0.0 10231737
20:00+24ю25515 0.0 1022109
15 мая, сб
сб1523:00+19ю3860100 0.0 1022140
02:00+18ю312593 0.1 1021214
05:00+16ююз396295 0.1 1021162
08:00+19юз375741 0.0 1022237
11:00+25юз464289 0.0 1021620
14:00+28юз573284 0.0 10211087
17:00+29юз5831100 0.0 10201502
20:00+24ююз395069 0.0 1019237
16 мая, вс
вс1623:00+20ююз3115979 0.0 1019197
02:00+17ююз23605 0.0 102036
05:00+16ююз23595 0.0 102029
08:00+20ююз255261 0.0 1020175
11:00+26ююз473644 0.0 1020630
14:00+30юз68275 0.0 10192390
17:00+30юз57285 0.0 10182859
20:00+25ююз384639 0.0 1018162
17 мая, пн
пн1723:00+20ю355429 0.0 101868
02:00+18ююз385864 0.0 1017115
05:00+17юз2360100 0.0 101845
08:00+20юз2756100 0.0 1019197
11:00+26зюз4639100 0.0 1019777
14:00+29зюз473149 0.0 10181579
17:00+29з5103038 0.0 10183034
20:00+25з244611 0.0 101765
18 мая, вт
вт1823:00+20зсз11614 0.0 101811
02:00+17ссз1172100 0.4 101911
05:00+17ююв117449 0.4 101811
08:00+20с127071 0.6 1019137
11:00+26з124797 0.6 1018694
14:00+29зюз353243 0.0 10172525
17:00+30зсз35275 0.0 10162810
20:00+20ююв26605 0.0 1017181